QPF
0.00 0.00 0.00 0.00 0.00 0.00 0.00 0.00 0.00 0.00 0.00 0.00 0.00 0.00 0.00 0.00 0.00 0.00 0.00 0.00 0.00 0.00 0.00 0.00 0.00 0.01 0.00 0.00 0.00 0.00 0.01 0.01 0.00 0.00 0.00 0.00 0.00 0.00 0.00 0.00 0.00 0.00 0.00
0.00 0.00 0.00 0.00 0.00 0.00 0.00 0.00 0.00 0.00 0.00 0.00 0.00 0.00 0.00 0.00 0.00 0.00 0.00 0.00 0.00 0.00 0.00 0.00 0.00 0.00 0.00 0.00 0.00 0.00 0.00 0.01 0.01 0.01 0.00 0.00 0.00 0.00 0.00 0.00 0.00 0.00 0.00
0.00 0.00 0.00 0.00 0.00 0.00 0.00 0.00 0.00 0.00 0.00 0.00 0.00 0.00 0.00 0.00 0.00 0.00 0.00 0.00 0.00 0.00 0.00 0.00 0.00 0.01 0.01 0.01 0.00 0.00 0.00 0.00 0.01 0.02 0.00 0.00 0.00 0.00 0.00 0.00 0.00 0.00 0.00
0.00 0.00 0.00 0.00 0.00 0.00 0.00 0.00 0.00 0.00 0.00 0.00 0.00 0.00 0.00 0.00 0.00 0.00 0.00 0.00 0.00 0.00 0.00 0.00 0.01 0.02 0.00 0.01 0.00 0.00 0.00 0.00 0.00 0.01 0.00 0.00 0.00 0.00 0.00 0.00 0.00 0.00 0.00
0.00 0.00 0.00 0.00 0.00 0.00 0.01 0.02 0.02 0.01 0.00 0.00 0.00 0.00 0.00 0.00 0.00 0.00 0.00 0.00 0.00 0.00 0.00 0.00 0.00 0.00 0.00 0.00 0.00 0.00 0.00 0.01 0.00 0.00 0.00 0.00 0.00 0.00 0.00 0.00 0.00 0.00 0.00
0.00 0.00 0.00 0.00 0.00 0.00 0.04 0.06 0.10 0.09 0.08 0.03 0.02 0.01 0.00 0.00 0.00 0.00 0.00 0.00 0.00 0.00 0.00 0.00 0.00 0.02 0.00 0.00 0.00 0.00 0.00 0.01 0.00 0.00 0.01 0.02 0.02 0.00 0.00 0.00 0.00 0.00 0.00
0.00 0.00 0.00 0.00 0.00 0.00 0.00 0.01 0.08 0.20 0.24 0.17 0.10 0.05 0.02 0.00 0.00 0.00 0.00 0.00 0.00 0.00 0.01 0.03 0.03 0.01 0.01 0.00 0.00 0.00 0.00 0.00 0.00 0.00 0.01 0.01 0.00 0.00 0.00 0.00 0.00 0.00 0.00
0.00 0.00 0.00 0.00 0.00 0.00 0.00 0.01 0.06 0.16 0.18 0.10 0.05 0.02 0.00 0.00 0.00 0.00 0.00 0.00 0.00 0.01 0.02 0.03 0.03 0.02 0.03 0.00 0.00 0.00 0.00 0.00 0.00 0.00 0.00 0.00 0.00 0.00 0.00 0.00 0.00 0.00 0.00
0.00 0.00 0.00 0.00 0.00 0.00 0.00 0.01 0.04 0.07 0.05 0.01 0.00 0.00 0.00 0.00 0.00 0.00 0.00 0.00 0.00 0.00 0.00 0.00 0.00 0.00 0.00 0.00 0.00 0.00 0.00 0.00 0.00 0.00 0.00 0.00 0.00 0.00 0.00 0.00 0.00 0.00 0.00
0.00 0.00 0.00 0.00 0.00 0.00 0.00 0.02 0.03 0.01 0.00 0.00 0.00 0.00 0.01 0.03 0.03 0.04 0.01 0.00 0.01 0.02 0.02 0.02 0.02 0.00 0.00 0.00 0.00 0.00 0.00 0.00 0.00 0.00 0.00 0.00 0.00 0.00 0.00 0.00 0.00 0.01 0.01
0.00 0.00 0.00 0.00 0.00 0.00 0.00 0.00 0.00 0.00 0.00 0.00 0.01 0.01 0.02 0.03 0.05 0.03 0.02 0.00 0.01 0.01 0.02 0.03 0.01 0.00 0.00 0.00 0.00 0.00 0.00 0.00 0.00 0.00 0.00 0.00 0.00 0.00 0.00 0.00 0.00 0.00 0.00
0.00 0.00 0.00 0.00 0.00 0.00 0.00 0.00 0.00 0.02 0.02 0.01 0.01 0.00 0.00 0.00 0.00 0.01 0.01 0.01 0.02 0.03 0.04 0.01 0.00 0.00 0.00 0.00 0.00 0.00 0.00 0.00 0.00 0.00 0.00 0.00 0.00 0.00 0.00 0.00 0.00 0.00 0.00
0.00 0.00 0.00 0.00 0.00 0.00 0.02 0.01 0.01 0.01 0.01 0.01 0.00 0.00 0.00 0.00 0.00 0.00 0.00 0.01 0.01 0.00 0.00 0.00 0.00 0.00 0.00 0.00 0.00 0.00 0.00 0.00 0.00 0.00 0.00 0.00 0.00 0.00 0.00 0.00 0.00 0.00 0.00
0.00 0.00 0.00 0.00 0.00 0.00 0.01 0.00 0.01 0.01 0.00 0.00 0.00 0.00 0.02 0.02 0.02 0.01 0.01 0.01 0.00 0.00 0.00 0.00 0.00 0.00 0.00 0.00 0.00 0.00 0.00 0.00 0.00 0.00 0.00 0.00 0.00 0.00 0.00 0.00 0.00 0.00 0.00
0.00 0.00 0.00 0.00 0.00 0.00 0.00 0.00 0.00 0.01 0.00 0.00 0.00 0.00 0.03 0.05 0.04 0.02 0.01 0.00 0.00 0.00 0.00 0.00 0.00 0.00 0.00 0.00 0.00 0.00 0.00 0.00 0.00 0.00 0.00 0.00 0.00 0.00 0.00 0.00 0.00 0.00 0.00
0.00 0.00 0.00 0.00 0.00 0.00 0.00 0.00 0.00 0.00 0.00 0.00 0.00 0.00 0.01 0.02 0.01 0.00 0.00 0.00 0.00 0.00 0.00 0.00 0.00 0.00 0.00 0.00 0.00 0.00 0.00 0.00 0.00 0.00 0.00 0.00 0.00 0.00 0.00 0.00 0.00 0.00 0.00
0.00 0.00 0.00 0.00 0.00 0.00 0.00 0.00 0.00 0.00 0.00 0.00 0.00 0.00 0.00 0.00 0.00 0.00 0.00 0.00 0.00 0.00 0.00 0.00 0.00 0.00 0.00 0.00 0.00 0.00 0.00 0.00 0.00 0.00 0.00 0.00 0.00 0.00 0.00 0.00 0.00 0.00 0.00
0.00 0.00 0.00 0.00 0.00 0.00 0.00 0.00 0.00 0.00 0.00 0.00 0.00 0.00 0.00 0.00 0.00 0.00 0.00 0.00 0.00 0.00 0.00 0.00 0.00 0.00 0.00 0.00 0.00 0.00 0.00 0.00 0.00 0.00 0.00 0.00 0.00 0.00 0.00 0.00 0.00 0.00 0.00
0.00 0.00 0.00 0.00 0.00 0.00 0.00 0.00 0.00 0.00 0.00 0.00 0.00 0.00 0.00 0.00 0.00 0.00 0.00 0.00 0.00 0.00 0.00 0.00 0.00 0.00 0.00 0.00 0.00 0.00 0.00 0.00 0.00 0.00 0.00 0.00 0.00 0.00 0.00 0.00 0.00 0.00 0.00
0.00 0.00 0.00 0.00 0.00 0.00 0.00 0.00 0.00 0.00 0.00 0.00 0.00 0.00 0.00 0.00 0.00 0.00 0.00 0.00 0.00 0.00 0.00 0.00 0.00 0.00 0.00 0.00 0.00 0.00 0.00 0.00 0.00 0.00 0.00 0.00 0.00 0.00 0.00 0.00 0.00 0.00 0.00
0.00 0.00 0.00 0.00 0.00 0.00 0.00 0.00 0.00 0.00 0.00 0.00 0.00 0.00 0.00 0.00 0.00 0.00 0.00 0.00 0.00 0.00 0.00 0.00 0.00 0.00 0.00 0.00 0.00 0.00 0.00 0.00 0.00 0.00 0.00 0.00 0.00 0.00 0.00 0.00 0.00 0.00 0.00
0.00 0.00 0.00 0.00 0.00 0.00 0.00 0.00 0.00 0.00 0.00 0.00 0.00 0.00 0.00 0.00 0.00 0.00 0.00 0.00 0.00 0.00 0.00 0.00 0.00 0.00 0.00 0.00 0.00 0.00 0.00 0.00 0.00 0.00 0.00 0.00 0.00 0.00 0.00 0.00 0.00 0.00 0.00
0.00 0.00 0.00 0.00 0.00 0.00 0.00 0.00 0.00 0.00 0.00 0.00 0.00 0.00 0.00 0.00 0.00 0.00 0.00 0.00 0.00 0.00 0.00 0.00 0.00 0.00 0.00 0.00 0.00 0.00 0.00 0.00 0.00 0.00 0.00 0.00 0.00 0.00 0.00 0.00 0.00 0.00 0.00
0.00 0.00 0.00 0.00 0.00 0.00 0.00 0.00 0.00 0.00 0.00 0.00 0.00 0.00 0.00 0.00 0.00 0.00 0.00 0.00 0.00 0.00 0.00 0.00 0.00 0.00 0.00 0.00 0.00 0.00 0.00 0.00 0.00 0.00 0.00 0.00 0.00 0.00 0.00 0.00 0.00 0.00 0.00
0.00 0.00 0.00 0.00 0.00 0.00 0.00 0.00 0.00 0.00 0.00 0.00 0.00 0.00 0.00 0.00 0.00 0.00 0.00 0.00 0.00 0.00 0.00 0.00 0.00 0.00 0.00 0.00 0.00 0.00 0.00 0.00 0.00 0.00 0.00 0.00 0.00 0.00 0.00 0.00 0.00 0.00 0.00
0.00 0.00 0.00 0.00 0.00 0.00 0.00 0.00 0.00 0.00 0.00 0.00 0.00 0.00 0.00 0.00 0.00 0.00 0.00 0.00 0.00 0.00 0.00 0.00 0.00 0.00 0.00 0.00 0.00 0.00 0.00 0.00 0.00 0.00 0.00 0.00 0.00 0.00 0.00 0.00 0.00 0.00 0.00
MSLP
1007.61 1008.22 1008.96 1009.64 1010.28 1010.97 1011.32 1011.87 1012.51 1012.99 1013.72 1013.98 1014.63 1015.40 1015.17 1015.97 1016.65 1016.81 1016.80 1016.77 1017.01 1017.26 1017.49 1017.47 1017.61 1017.67 1017.18 1016.71 1016.60 1016.65 1016.48 1016.54 1016.24 1015.51 1015.52 1015.53 1015.66 1015.95 1015.96 1016.08 1015.97 1015.69 1015.20
1006.11 1007.09 1007.99 1008.70 1009.25 1009.87 1010.56 1011.31 1012.06 1012.73 1012.59 1014.56 1014.95 1015.44 1015.76 1015.70 1016.13 1016.37 1016.46 1016.29 1016.61 1016.75 1016.98 1017.15 1017.06 1016.89 1016.89 1017.06 1016.80 1016.63 1016.36 1016.71 1016.47 1016.10 1015.73 1015.63 1015.30 1015.23 1015.15 1015.09 1014.96 1014.77 1014.53
1005.15 1006.05 1006.95 1007.52 1008.29 1008.80 1009.68 1010.66 1011.94 1012.25 1013.08 1013.11 1013.60 1014.63 1015.59 1015.60 1015.95 1016.16 1016.22 1016.14 1016.22 1016.34 1016.44 1016.54 1016.48 1016.67 1016.67 1016.42 1016.55 1016.35 1015.89 1015.81 1015.76 1015.59 1015.35 1014.95 1014.66 1014.53 1014.15 1014.01 1013.89 1013.69 1013.60
1003.84 1004.87 1005.68 1006.50 1007.22 1008.29 1009.26 1010.10 1010.95 1011.55 1012.38 1013.09 1014.08 1013.87 1015.40 1015.49 1016.10 1015.62 1015.68 1015.64 1015.70 1015.68 1015.95 1016.05 1015.96 1016.12 1016.10 1016.19 1016.19 1016.13 1016.11 1016.09 1015.73 1015.35 1014.73 1014.10 1013.95 1013.87 1013.35 1013.09 1012.57 1012.43 1012.25
1002.94 1003.69 1004.80 1006.11 1007.08 1007.92 1008.43 1009.41 1010.05 1010.90 1011.65 1012.51 1012.85 1012.56 1014.62 1015.42 1015.39 1015.25 1015.51 1015.35 1015.30 1015.17 1015.26 1015.45 1015.55 1015.58 1015.51 1015.51 1015.62 1015.46 1015.70 1015.60 1015.21 1014.85 1014.19 1013.75 1013.48 1013.46 1013.35 1012.95 1012.60 1012.04 1011.67
1002.59 1003.36 1004.38 1005.29 1006.36 1007.07 1007.59 1008.71 1009.92 1010.50 1010.81 1011.57 1011.34 1011.38 1013.04 1013.77 1013.64 1014.14 1014.69 1014.77 1014.84 1014.65 1014.81 1014.79 1014.98 1015.25 1015.39 1015.69 1015.71 1015.78 1015.74 1015.49 1015.42 1015.11 1014.52 1013.83 1013.79 1013.44 1013.20 1013.12 1012.83 1012.35 1011.57
1002.29 1002.91 1003.73 1004.67 1005.64 1006.36 1007.03 1008.23 1009.31 1009.51 1010.17 1010.49 1010.89 1010.85 1012.26 1013.34 1013.09 1013.40 1014.17 1014.40 1014.22 1014.04 1014.13 1014.36 1014.64 1014.56 1014.45 1014.76 1015.03 1015.29 1015.29 1015.12 1015.10 1015.15 1014.44 1014.13 1013.90 1013.51 1013.58 1013.50 1013.09 1012.71 1011.98
1001.64 1002.46 1003.24 1004.16 1005.07 1005.89 1006.52 1007.29 1008.15 1008.84 1009.74 1010.26 1010.97 1011.32 1011.94 1012.40 1012.83 1012.68 1013.39 1013.74 1013.55 1013.54 1013.54 1013.38 1013.66 1013.90 1014.18 1014.31 1014.31 1014.28 1014.15 1013.96 1014.18 1014.16 1014.12 1013.84 1013.96 1013.71 1013.94 1013.70 1013.16 1012.61 1012.44
1001.10 1001.90 1002.59 1003.31 1004.08 1005.01 1005.84 1006.66 1007.29 1008.06 1009.16 1009.49 1010.18 1010.68 1011.29 1011.94 1012.58 1012.51 1012.87 1012.73 1012.71 1013.03 1013.39 1013.66 1013.77 1013.51 1013.64 1014.45 1014.24 1014.14 1013.69 1013.34 1013.20 1013.81 1014.16 1014.17 1014.05 1013.67 1013.67 1013.42 1012.30 1011.72 1011.18
1000.58 1001.41 1002.23 1003.15 1003.91 1004.67 1005.34 1006.32 1007.06 1007.68 1008.26 1008.72 1009.26 1010.02 1010.55 1011.33 1011.69 1012.06 1012.58 1012.56 1012.65 1012.93 1013.22 1013.22 1013.37 1013.51 1013.96 1014.30 1014.35 1013.89 1013.37 1012.94 1012.78 1013.18 1013.24 1013.08 1012.73 1011.97 1012.22 1012.28 1011.74 1011.22 1010.05
1000.25 1001.00 1001.76 1002.64 1003.51 1004.30 1005.37 1006.37 1007.39 1007.88 1008.29 1008.66 1008.85 1009.59 1010.22 1010.42 1011.03 1011.64 1012.09 1012.29 1012.58 1012.54 1012.42 1012.74 1012.76 1013.52 1013.99 1014.13 1014.20 1013.45 1013.41 1013.56 1013.14 1012.72 1012.03 1011.53 1011.20 1010.75 1010.38 1010.47 1010.52 1010.32 1009.35
1000.47 1001.11 1001.87 1002.91 1003.73 1004.40 1005.24 1006.39 1007.25 1007.74 1007.81 1008.21 1008.65 1008.95 1009.54 1010.05 1010.82 1010.93 1011.64 1011.32 1011.96 1012.13 1012.14 1011.69 1012.62 1012.94 1013.54 1013.77 1013.79 1013.55 1013.57 1013.56 1012.38 1011.53 1011.21 1010.83 1010.47 1010.28 1010.09 1010.23 1010.25 1009.90 1009.19
1000.74 1001.45 1002.63 1003.36 1004.06 1004.49 1005.55 1006.62 1007.26 1007.80 1007.82 1008.23 1008.30 1008.53 1009.01 1009.24 1010.16 1011.22 1011.21 1011.28 1012.01 1011.98 1011.29 1011.95 1012.55 1013.19 1013.56 1013.52 1013.56 1013.62 1013.55 1012.42 1011.59 1011.20 1010.86 1010.55 1010.43 1010.45 1010.34 1009.69 1009.03 1008.60 1007.86
1001.42 1002.16 1003.14 1003.90 1004.50 1004.99 1006.18 1006.99 1007.29 1007.76 1007.86 1007.57 1007.76 1008.08 1008.94 1009.14 1010.00 1010.84 1011.51 1011.82 1011.89 1011.46 1011.71 1011.93 1012.36 1012.64 1012.84 1012.90 1012.92 1012.94 1012.25 1011.73 1011.74 1011.54 1010.94 1010.72 1010.36 1009.95 1009.46 1008.97 1008.47 1007.77 1006.91
1001.90 1002.33 1003.02 1003.77 1004.23 1005.02 1006.58 1007.39 1007.39 1007.60 1008.51 1007.84 1008.64 1009.17 1009.53 1009.70 1009.42 1009.56 1010.08 1009.87 1010.17 1010.68 1010.71 1010.77 1010.88 1010.74 1010.67 1010.74 1011.01 1011.45 1011.47 1011.43 1011.38 1011.03 1010.85 1010.58 1010.02 1009.55 1009.12 1008.75 1008.27 1007.43 1006.83
1002.01 1002.13 1002.32 1002.90 1003.75 1004.94 1006.25 1007.42 1008.62 1008.71 1008.87 1009.00 1009.20 1009.23 1009.49 1009.55 1009.52 1010.12 1010.76 1010.83 1011.04 1011.22 1011.10 1010.24 1009.81 1009.87 1010.06 1010.13 1010.38 1010.56 1010.81 1011.11 1011.09 1011.12 1010.89 1010.48 1009.93 1009.50 1009.03 1008.65 1007.83 1007.22 1006.91
1001.51 1002.16 1002.54 1002.71 1003.38 1004.52 1005.44 1006.30 1007.35 1009.25 1009.40 1009.47 1009.57 1009.41 1009.58 1010.40 1010.62 1010.99 1011.24 1011.39 1011.55 1011.55 1010.64 1009.66 1009.65 1009.74 1009.95 1010.15 1010.44 1010.63 1010.61 1010.70 1011.52 1011.01 1010.71 1010.36 1009.88 1009.42 1008.99 1008.29 1007.60 1006.94 1006.28
1001.87 1002.43 1002.63 1002.81 1003.32 1004.18 1004.99 1005.54 1005.94 1006.66 1007.67 1008.86 1009.74 1009.85 1010.43 1010.73 1010.99 1011.29 1011.41 1011.35 1011.42 1011.02 1009.93 1009.62 1009.66 1009.82 1010.11 1010.42 1010.56 1010.71 1010.71 1010.78 1010.69 1010.72 1010.54 1010.09 1009.70 1009.26 1008.70 1008.15 1007.51 1006.97 1006.42
1002.47 1002.74 1002.72 1003.18 1003.41 1003.96 1004.56 1005.01 1005.37 1005.77 1006.09 1007.51 1009.49 1010.44 1010.97 1011.24 1011.50 1011.52 1011.29 1010.27 1009.65 1009.49 1009.56 1009.80 1009.92 1009.97 1010.24 1010.60 1010.81 1011.07 1011.27 1010.99 1011.19 1011.00 1010.39 1010.01 1009.61 1009.13 1008.57 1008.13 1007.44 1007.08 1006.60
1002.69 1003.10 1003.12 1003.08 1003.71 1003.75 1004.22 1004.50 1004.81 1005.13 1005.53 1006.60 1007.67 1008.30 1009.62 1010.67 1010.38 1010.27 1009.88 1009.63 1009.59 1009.51 1009.74 1009.89 1010.15 1010.51 1010.69 1010.94 1011.05 1011.13 1011.10 1010.80 1010.65 1010.51 1010.30 1010.03 1009.58 1009.12 1008.57 1008.02 1007.34 1006.76 1006.17
1002.15 1003.07 1002.95 1003.05 1003.25 1003.45 1003.69 1004.06 1004.33 1004.74 1005.15 1005.76 1006.37 1007.42 1008.04 1008.66 1008.45 1008.68 1008.91 1009.32 1009.28 1009.42 1009.90 1010.15 1010.38 1010.69 1010.95 1011.08 1011.21 1011.05 1010.80 1010.63 1010.66 1010.63 1010.38 1009.97 1009.63 1009.04 1008.63 1008.02 1007.29 1006.73 1006.20
1002.15 1002.53 1002.57 1002.72 1003.14 1003.60 1003.79 1004.18 1004.50 1004.76 1004.94 1005.36 1006.13 1008.10 1008.60 1008.64 1007.93 1008.19 1008.54 1008.86 1009.18 1009.66 1009.84 1010.33 1010.43 1010.54 1010.68 1010.90 1011.08 1010.94 1010.75 1010.71 1010.79 1010.79 1010.57 1010.12 1009.58 1008.98 1008.65 1008.01 1007.39 1006.92 1006.49
1002.05 1002.34 1002.65 1003.02 1003.29 1004.02 1004.19 1004.09 1004.24 1004.51 1004.73 1005.17 1005.89 1007.00 1008.44 1007.86 1007.53 1007.75 1008.14 1008.60 1009.10 1009.43 1009.85 1010.24 1010.44 1010.52 1010.93 1011.20 1011.21 1011.09 1010.80 1010.84 1011.12 1011.19 1010.82 1010.31 1009.68 1009.31 1008.75 1008.18 1007.61 1007.20 1006.82
1002.16 1002.41 1002.75 1003.16 1003.65 1003.64 1003.58 1003.89 1004.16 1004.84 1004.80 1005.21 1005.66 1006.27 1006.77 1007.02 1007.07 1007.49 1007.99 1008.46 1008.94 1009.25 1009.66 1010.02 1010.28 1010.48 1010.93 1011.10 1011.11 1011.15 1011.32 1011.47 1011.63 1011.15 1011.20 1010.55 1009.90 1009.58 1008.96 1008.38 1007.90 1007.53 1007.08
1002.51 1002.84 1003.19 1003.41 1003.63 1003.70 1003.69 1004.13 1004.05 1004.33 1004.85 1005.10 1005.39 1005.86 1006.24 1006.63 1007.10 1007.67 1007.77 1008.14 1008.61 1008.98 1009.47 1009.80 1009.99 1010.31 1010.87 1011.09 1010.93 1011.23 1012.59 1012.83 1012.61 1012.75 1011.56 1010.67 1010.22 1009.84 1009.17 1008.52 1008.41 1007.66 1007.53
1002.87 1003.36 1003.60 1003.81 1003.93 1004.02 1004.05 1004.01 1004.05 1004.19 1004.47 1004.70 1005.06 1005.43 1005.90 1006.29 1006.47 1006.55 1007.01 1007.60 1008.05 1008.50 1008.92 1009.38 1009.64 1010.19 1010.55 1010.90 1011.25 1012.28 1012.68 1012.90 1012.73 1013.03 1012.46 1010.84 1010.20 1009.65 1009.72 1008.96 1008.71 1008.07 1007.81
Thickness
5817 5814 5807 5801 5797 5790 5786 5780 5772 5767 5758 5756 5749 5738 5740 5732 5722 5719 5718 5716 5712 5707 5704 5701 5697 5694 5696 5698 5697 5692 5689 5685 5679 5687 5687 5684 5678 5673 5667 5661 5657 5657 5659
5826 5818 5810 5806 5800 5793 5787 5780 5771 5764 5766 5742 5736 5732 5725 5726 5722 5715 5712 5712 5706 5702 5698 5694 5692 5692 5689 5685 5683 5681 5680 5673 5670 5667 5671 5669 5669 5666 5662 5655 5651 5650 5650
5830 5822 5814 5809 5801 5796 5788 5780 5766 5762 5754 5751 5741 5729 5721 5719 5715 5711 5707 5704 5701 5697 5694 5691 5688 5685 5681 5681 5677 5675 5677 5673 5668 5664 5662 5666 5662 5659 5655 5654 5649 5647 5644
5837 5827 5819 5810 5804 5794 5788 5779 5772 5763 5752 5740 5727 5719 5711 5708 5703 5707 5704 5702 5697 5695 5690 5687 5685 5679 5676 5673 5671 5669 5666 5662 5659 5657 5657 5659 5653 5650 5650 5647 5646 5644 5639
5837 5831 5820 5810 5802 5794 5788 5780 5772 5762 5750 5739 5730 5726 5709 5697 5699 5698 5696 5694 5692 5689 5684 5681 5678 5675 5675 5673 5669 5666 5660 5655 5655 5651 5650 5647 5642 5636 5632 5636 5633 5634 5631
5834 5827 5821 5814 5803 5795 5791 5778 5763 5754 5749 5739 5734 5730 5713 5707 5706 5699 5693 5690 5687 5684 5676 5674 5671 5667 5667 5660 5658 5654 5651 5649 5640 5635 5634 5633 5627 5626 5624 5621 5618 5614 5615
5832 5828 5822 5814 5804 5797 5790 5775 5759 5753 5744 5739 5733 5729 5714 5703 5704 5696 5687 5685 5682 5680 5674 5670 5666 5664 5665 5660 5653 5646 5640 5637 5632 5627 5626 5621 5615 5614 5608 5605 5604 5601 5603
5832 5826 5820 5811 5802 5794 5786 5776 5765 5756 5742 5733 5723 5717 5710 5705 5697 5693 5683 5682 5679 5675 5671 5668 5662 5659 5655 5652 5649 5643 5640 5637 5630 5625 5619 5616 5608 5605 5596 5594 5593 5594 5592
5828 5822 5818 5812 5803 5793 5782 5771 5763 5752 5739 5732 5723 5714 5705 5698 5686 5681 5678 5678 5676 5670 5664 5657 5654 5653 5649 5638 5637 5632 5630 5628 5625 5615 5606 5600 5595 5594 5588 5586 5588 5588 5587
5825 5820 5814 5805 5796 5785 5777 5765 5755 5745 5737 5729 5720 5708 5699 5689 5682 5673 5669 5668 5662 5657 5654 5652 5646 5642 5635 5628 5625 5623 5622 5620 5616 5606 5604 5600 5595 5595 5588 5582 5580 5578 5586
5824 5817 5810 5801 5790 5780 5767 5754 5741 5732 5724 5717 5711 5700 5690 5687 5678 5670 5663 5661 5656 5653 5650 5642 5642 5630 5623 5619 5613 5617 5613 5603 5601 5600 5601 5601 5597 5595 5594 5587 5581 5578 5583
5811 5805 5797 5786 5776 5768 5754 5741 5732 5722 5717 5709 5700 5694 5688 5681 5672 5667 5658 5658 5649 5642 5638 5642 5633 5624 5615 5609 5604 5601 5596 5590 5598 5599 5598 5595 5593 5590 5588 5581 5576 5575 5575
5797 5790 5778 5770 5761 5756 5742 5727 5719 5712 5707 5700 5696 5690 5684 5680 5670 5655 5651 5645 5634 5632 5638 5627 5617 5608 5601 5598 5593 5590 5584 5590 5593 5592 5590 5589 5586 5582 5578 5579 5580 5578 5580
5778 5770 5762 5752 5744 5738 5725 5717 5710 5701 5697 5697 5690 5685 5674 5670 5660 5649 5639 5633 5627 5627 5619 5617 5609 5602 5596 5592 5590 5584 5585 5586 5583 5580 5580 5579 5580 5578 5576 5577 5576 5578 5580
5763 5758 5750 5740 5733 5724 5705 5699 5700 5693 5681 5687 5674 5666 5659 5653 5652 5650 5642 5642 5634 5623 5620 5615 5611 5608 5603 5599 5593 5585 5582 5579 5576 5575 5572 5571 5574 5574 5572 5572 5571 5574 5573
5747 5745 5742 5735 5725 5711 5699 5688 5668 5666 5660 5657 5654 5654 5648 5643 5640 5632 5623 5617 5611 5606 5606 5608 5607 5603 5596 5592 5587 5582 5577 5571 5569 5566 5564 5565 5567 5566 5566 5565 5569 5569 5566
5739 5732 5727 5724 5715 5702 5692 5683 5673 5652 5644 5641 5637 5637 5634 5626 5621 5614 5608 5601 5594 5591 5601 5602 5596 5591 5585 5582 5576 5571 5569 5567 5557 5558 5558 5558 5560 5561 5561 5563 5565 5567 5567
5725 5716 5715 5710 5703 5692 5683 5676 5672 5664 5654 5642 5625 5626 5616 5612 5606 5599 5594 5591 5591 5587 5595 5591 5585 5580 5574 5569 5565 5562 5560 5557 5555 5552 5551 5553 5554 5555 5557 5558 5560 5561 5561
5706 5702 5701 5694 5690 5681 5673 5667 5662 5657 5652 5641 5620 5610 5601 5595 5589 5584 5582 5594 5596 5593 5588 5579 5574 5571 5566 5560 5555 5551 5547 5547 5543 5542 5545 5547 5549 5550 5553 5554 5556 5553 5553
5691 5681 5682 5682 5673 5670 5664 5657 5652 5649 5645 5634 5625 5620 5603 5591 5592 5590 5590 5588 5585 5582 5575 5569 5564 5558 5554 5550 5547 5543 5540 5540 5540 5540 5540 5541 5543 5544 5547 5549 5552 5553 5554
5684 5673 5671 5670 5665 5661 5656 5651 5647 5641 5635 5629 5624 5617 5603 5599 5599 5595 5588 5580 5577 5572 5563 5558 5553 5548 5545 5542 5538 5537 5537 5536 5534 5533 5534 5536 5537 5539 5541 5545 5549 5550 5551
5672 5666 5664 5660 5654 5648 5645 5640 5635 5631 5626 5621 5616 5600 5587 5591 5595 5589 5581 5575 5570 5562 5557 5549 5546 5544 5541 5537 5533 5533 5532 5530 5527 5526 5526 5528 5531 5534 5535 5539 5542 5544 5544
5661 5656 5651 5646 5643 5632 5631 5631 5627 5623 5620 5615 5609 5600 5585 5589 5589 5583 5577 5571 5564 5558 5550 5544 5540 5537 5531 5528 5526 5525 5525 5523 5519 5517 5518 5520 5523 5524 5526 5530 5534 5535 5537
5648 5644 5638 5633 5628 5626 5626 5621 5618 5608 5610 5607 5602 5597 5591 5587 5585 5579 5573 5566 5560 5554 5548 5541 5536 5532 5526 5523 5521 5518 5515 5513 5510 5511 5509 5512 5515 5515 5518 5521 5524 5526 5530
5633 5628 5624 5621 5619 5617 5615 5610 5611 5607 5602 5600 5597 5593 5588 5584 5578 5571 5568 5563 5557 5551 5544 5538 5533 5528 5521 5517 5516 5512 5503 5499 5498 5497 5500 5505 5507 5508 5511 5515 5514 5520 5520
5621 5615 5611 5609 5607 5605 5604 5604 5603 5602 5599 5597 5593 5589 5583 5579 5577 5574 5569 5562 5556 5550 5543 5536 5531 5524 5518 5513 5508 5501 5496 5493 5491 5489 5489 5498 5503 5505 5502 5507 5507 5512 5513